Regional Weather Roundup
Issued by NWS

Home | Current Version | Previous Version | Text Only | Print | Product List | Glossary Off
Versions: 1 2 3 4 5 6 7 8 9 10 11 12 13 14 15 16 17 18 19 20 21 22 23 24 25 26 27 28

000
ASUS45 KSLC 280110
RWRUT

UTAH REGIONAL WEATHER ROUNDUP
NATIONAL WEATHER SERVICE SALT LAKE CITY UT
700 PM MDT WED APR 27 2016

UTZ001>011-023>025-280200-

NORTHERN UTAH

CITY           SKY/WX    TMP DP  RH WIND       PRES   REMARKS
BRIGHAM CITY   CLOUDY    51  43  74 S10       29.76R
HILL AFB       PTSUNNY   50  41  71 N9        29.74F
LOGAN          PTSUNNY   54  35  48 E17       29.73S
OGDEN          CLOUDY    51  41  68 N13       29.73F
PROVO AIRPORT  LGT RAIN  50  39  66 SW17G29   29.75R
SALT LAKE CITY CLOUDY    54  41  61 N9        29.72F
VERNAL         CLOUDY    54  31  41 CALM      29.76S
WENDOVER       CLOUDY    46  37  71 N8        29.77F
HEBER CITY     CLOUDY    46  34  61 CALM      29.74F

$$

UTZ012>022-026-027-280200-

SOUTHERN/CENTRAL UTAH

CITY           SKY/WX    TMP DP  RH WIND       PRES   REMARKS
BLANDING       CLOUDY    54  32  42 W8        29.84F
BRYCE CANYON   LGT RAIN  39  34  82 NE3       29.80F
CEDAR CITY     RAIN      41  38  89 S7        29.76F FOG
DELTA          CLOUDY    43  41  93 S3        29.75S
HANKSVILLE     CLOUDY    50  43  76 NW8       29.76F
MILFORD        CLOUDY    49  38  65 S12       29.73F
MOAB/CYNLANDS  CLOUDY    59  33  37 SW15G22   29.70F
PRICE          CLOUDY    46  38  73 S15       29.77R
ST GEORGE      CLOUDY    55  41  58 NE13      29.73F

$$

REGIONAL REPORTS     COLORADO/ARIZONA

CITY           SKY/WX    TMP DP  RH WIND       PRES   REMARKS
CRAIG, CO      SUNNY     49  31  49 N8        29.81S
GRAND JUNCTION CLOUDY    56  35  45 SE6       29.74F
RIFLE          CLOUDY    53  33  46 NW8       29.78S
MONTROSE       CLOUDY    54  30  40 CALM      29.80S
CORTEZ         CLOUDY    55  27  34 CALM      29.79R
PAGE, AZ       CLOUDY    60  37  42 NW10      29.71S
GRAND CANYON   CLOUDY    49  29  46 W3        29.80S
KINGMAN        PTSUNNY   68  25  19 SW21      29.67F
FLAGSTAFF      PTSUNNY   50  24  36 SW16G24   29.81F

$$

REGIONAL REPORTS    NEVADA/IDAHO/WYOMING

CITY           SKY/WX    TMP DP  RH WIND       PRES   REMARKS
LAS VEGAS, NV  MOSUNNY   70  33  25 N12G21    29.58F
ELY            CLOUDY    43  35  73 NW7       29.75F
ELKO           CLOUDY    43  37  79 S3        29.79S
POCATELLO, ID  MOSUNNY   57  38  48 W7        29.75F
BURLEY         PTSUNNY   54  40  59 SW16      29.75S
EVANSTON, WY   CLOUDY    48  27  44 NE5       29.78F
ROCK SPRINGS   CLOUDY    43  30  60 NE13      29.83R
KEMMERER         N/A     41  32  70 E12       29.80S

$$




USA.gov is the U.S. government's official web portal to all federal, state and local government web resources and services.